Location: Shoshoni
(43.2355°N, 108.1106°W)
Time: 07:03:52
(UTC-07:00)

Tiangong 2 - Visible Passes

Search period start: 19 November 2017 00:00
Search period end: 29 November 2017 00:00
Orbit: 386 x 391 km, 42.8° (Epoch: 18 November)

Date Brightness Start Highest point End Pass type
(mag) Time Alt. Az. Time Alt. Az. Time Alt. Az.
26 Nov 4.1 05:52:39 10° S 05:54:18 13° SSE 05:55:58 10° ESE visible
27 Nov 2.7 06:29:36 10° SW 06:32:32 34° SSE 06:35:28 10° E visible
28 Nov 3.3 05:32:47 15° SSW 05:34:25 22° SSE 05:37:00 10° E visible
